Flag for U.S.A. Weather past 2 weeks in Passaic, New Jersey, U.S.A.

Now
53 °F

Clear.


Feels Like: 53 °F
Forecast: 46 / 64 °F
Wind: No wind

Location: Teterboro Airport

Current Time: Oct 24, 2014 at 9:03:43 PM

Latest Report: Oct 24, 2014 at 7:51 PM


Visibility: 10 mi

Pressure: 29.80 "Hg

Humidity: 77%

Dew point: 46 °F

Location of PassaicLocation

Historic Weather in Passaic — Graph

°F

Passaic temperature yesterday

Maximum temperature yesterday: 54 °F (at 4:51 PM)
Minimum temperature yesterday: 51 °F (at 7:51 AM)
Average temperature yesterday: 52 °F

Past Weeks' High & Low Weather Summary

 TemperatureHumidityPressure
High81 °F (Oct 15, 11:51 AM)94% (Oct 14, 2:58 AM)30.33 "Hg (Oct 14, 2:58 AM)
Low38 °F (Oct 20, 2:51 AM)34% (Oct 9, 7:51 PM)29.56 "Hg (Oct 18, 1:51 PM)
Average59 °F68%29.94 "Hg
* Reported Oct 9 7:51 PM — Oct 24 7:51 PM, Passaic, Weather by CustomWeather, © 2014

Note: Actual official high and low records may vary slightly from our data, if they occured in-between our weather recording intervals... More about our weather records

Advertising

Passaic weather history for previous 24 hours

 ConditionsComfort  
Time TempWeatherWind HumidityBarometerVisibility
7:51 PM
Oct 24
53 °FClear.No wind77%29.80 "Hg10 mi
6:51 PM57 °FSunny.No wind64%29.78 "Hg10 mi
5:51 PM60 °FSunny.5 mph60%29.76 "Hg10 mi
4:51 PM64 °FScattered clouds.7 mph49%29.75 "Hg10 mi
3:51 PM64 °FOvercast.7 mph47%29.75 "Hg10 mi
2:51 PM63 °FOvercast.8 mph48%29.76 "Hg10 mi
1:51 PM61 °FOvercast.9 mph54%29.77 "Hg10 mi
12:51 PM59 °FOvercast.15 mph56%29.78 "Hg10 mi
11:51 AM57 °FOvercast.9 mph58%29.81 "Hg10 mi
10:51 AM56 °FPassing clouds.14 mph60%29.81 "Hg10 mi
9:51 AM54 °FOvercast.13 mph64%29.82 "Hg10 mi
9:00 AM54 °FMore clouds than sun.13 mph67%29.81 "Hg10 mi
7:51 AM52 °FPassing clouds.9 mph72%29.80 "Hg10 mi
6:51 AM50 °FPassing clouds.7 mph74%29.80 "Hg10 mi
5:51 AM50 °FOvercast.6 mph74%29.79 "Hg10 mi
4:51 AM51 °FPassing clouds.8 mph71%29.79 "Hg10 mi
3:51 AM51 °FPassing clouds.5 mph71%29.78 "Hg10 mi
2:51 AM52 °FMostly cloudy.5 mph69%29.77 "Hg10 mi
1:51 AM52 °FOvercast.6 mph69%29.76 "Hg10 mi
12:51 AM52 °FOvercast.8 mph69%29.76 "Hg10 mi
11:51 PM
Oct 23
53 °FOvercast.10 mph69%29.77 "Hg10 mi
10:51 PM53 °FOvercast.10 mph69%29.78 "Hg10 mi
9:51 PM53 °FOvercast.9 mph72%29.78 "Hg10 mi
Weather by CustomWeather, © 2014

See weather overviewHow to use our weather pages